Location: Góry Miechowskie
(50.3599°N, 20.1803°E)
Time: 14:34:58
(UTC+00:00)

Tiros 1 despin weight - All Passes

Search period start: 13 September 2024 00:00
Search period end: 23 September 2024 00:00
Orbit: 573 x 617 km, 48.2° (Epoch: 12 September)

Date Brightness Start Highest point End Pass type
(mag) Time Alt. Az. Time Alt. Az. Time Alt. Az.
13 Sep - 01:54:52 10° S 01:57:30 15° SE 02:00:08 10° ESE visible
13 Sep - 03:33:28 10° SW 03:37:46 43° SSE 03:42:05 10° E visible
13 Sep - 05:14:03 10° W 05:18:34 68° S 05:23:06 10° E daylight
13 Sep - 06:55:02 10° W 06:59:26 49° SSW 07:03:48 10° SE daylight
13 Sep - 08:36:38 10° W 08:39:49 19° SW 08:42:58 10° S daylight
14 Sep - 02:02:42 10° SSW 02:06:13 22° SE 02:09:45 10° E visible
14 Sep - 03:42:16 10° WSW 03:46:42 54° SSE 03:51:09 10° E visible
14 Sep - 05:23:03 10° W 05:27:35 67° S 05:32:05 10° ESE daylight
14 Sep - 07:04:06 10° W 07:08:20 38° SSW 07:12:31 10° SE daylight
14 Sep - 08:46:36 10° WSW 08:48:30 12° SW 08:50:23 10° SSW daylight
15 Sep - 02:11:00 10° SSW 02:14:59 31° SSE 02:19:00 10° E visible
15 Sep - 03:51:08 10° WSW 03:55:38 63° S 04:00:09 10° E daylight
15 Sep - 05:32:01 10° W 05:36:31 60° SSW 05:41:00 10° ESE daylight
15 Sep - 07:13:14 10° W 07:17:08 28° SSW 07:21:00 10° SSE daylight
16 Sep - 00:41:09 10° S 00:43:32 14° SE 00:45:56 10° ESE visible
16 Sep - 02:19:30 10° SW 02:23:46 41° SSE 02:28:03 10° E visible
16 Sep - 04:00:02 10° W 04:04:33 68° S 04:09:05 10° E daylight
16 Sep - 05:40:59 10° W 05:45:24 51° SSW 05:49:48 10° ESE daylight
16 Sep - 07:22:30 10° W 07:25:49 20° SW 07:29:07 10° SSE daylight
17 Sep - 00:48:45 10° SSW 00:52:08 21° SE 00:55:33 10° E visible
17 Sep - 02:28:10 10° WSW 02:32:34 52° SSE 02:37:00 10° E visible
17 Sep - 04:08:55 10° W 04:13:26 67° S 04:17:57 10° ESE daylight
17 Sep - 05:49:56 10° W 05:54:12 40° SSW 05:58:26 10° SE daylight
17 Sep - 07:32:11 10° WSW 07:34:23 13° SW 07:36:36 10° SSW daylight
18 Sep - 00:56:51 10° SSW 01:00:45 29° SSE 01:04:42 10° E visible
18 Sep - 02:36:54 10° WSW 02:41:23 61° S 02:45:53 10° E visible
18 Sep - 04:17:46 10° W 04:22:16 62° S 04:26:45 10° ESE daylight
18 Sep - 05:58:55 10° W 06:02:53 30° SSW 06:06:50 10° SSE daylight
18 Sep - 23:27:09 10° SSE 23:29:15 13° SE 23:31:21 10° ESE visible
19 Sep - 01:05:13 10° SW 01:09:25 39° SSE 01:13:40 10° E visible
19 Sep - 02:45:40 10° WSW 02:50:10 67° S 02:54:42 10° E visible
19 Sep - 04:26:36 10° W 04:31:01 52° SSW 04:35:27 10° ESE daylight
19 Sep - 06:08:01 10° W 06:11:28 21° SW 06:14:54 10° SSE daylight
19 Sep - 23:34:28 10° S 23:37:42 20° SE 23:40:58 10° E visible
20 Sep - 01:13:44 10° WSW 01:18:06 50° SSE 01:22:29 10° E visible
20 Sep - 02:54:26 10° W 02:58:56 68° S 03:03:27 10° E visible
20 Sep - 04:35:25 10° W 04:39:42 42° SSW 04:43:59 10° SE daylight
20 Sep - 06:17:28 10° WSW 06:19:56 15° SW 06:22:25 10° S daylight
20 Sep - 23:42:23 10° SSW 23:46:12 28° SSE 23:50:03 10° E visible
21 Sep - 01:22:20 10° WSW 01:26:46 60° SSE 01:31:15 10° E visible
21 Sep - 03:03:10 10° W 03:07:39 63° S 03:12:08 10° ESE visible
21 Sep - 04:44:16 10° W 04:48:17 31° SSW 04:52:18 10° SE daylight
21 Sep - 22:12:54 10° SSE 22:14:35 12° SE 22:16:18 10° ESE night (unlit)
21 Sep - 23:50:35 10° SW 23:54:43 37° SSE 23:58:54 10° E visible
22 Sep - 01:30:57 10° WSW 01:35:26 66° S 01:39:57 10° E visible
22 Sep - 03:11:52 10° W 03:16:18 54° SSW 03:20:44 10° ESE visible
22 Sep - 04:53:12 10° W 04:56:46 23° SW 05:00:19 10° SSE daylight
22 Sep - 22:19:53 10° S 22:22:55 18° SE 22:26:00 10° E night (unlit)
